Wind_Speed
82 78 75 71 84 77 75 72 73 69 61 56 51 48 53 53 51 50 47 46 46 46 45 44 43 45 46 43 42 39 36 34
86 82 78 77 81 82 78 73 75 72 70 65 55 55 59 60 56 55 51 47 45 46 45 43 43 41 40 38 37 32 36 38
89 85 82 80 82 84 84 79 74 74 71 65 63 54 61 63 59 56 53 51 46 45 44 44 43 43 41 37 37 37 32 27
89 85 83 85 85 86 83 82 78 77 78 66 59 56 60 58 60 57 54 54 52 49 46 44 43 42 41 37 34 33 30 28
90 87 83 83 85 90 87 86 84 76 80 76 62 62 64 68 62 62 58 57 55 51 47 45 43 41 40 39 37 35 32 29
90 87 85 85 88 88 91 89 87 83 77 80 72 66 66 65 66 60 61 58 55 50 49 47 43 44 41 40 38 36 33 30
90 89 88 92 93 90 90 91 88 86 84 80 74 73 64 63 66 66 60 60 58 55 51 51 47 44 45 41 39 38 36 37
97 98 92 95 96 94 89 90 91 90 86 81 78 78 69 64 64 64 66 57 58 57 54 54 53 50 48 45 43 42 40 37
94 97 94 94 98 97 89 92 90 92 87 85 81 79 72 67 67 66 62 58 55 53 55 52 48 51 51 48 46 46 46 44
99 98 97 93 99 99 93 92 92 90 92 89 86 80 76 71 67 68 67 66 60 55 53 56 53 48 49 50 50 50 50 46
99 98 99 94 95 97 96 94 94 92 96 97 93 89 84 78 73 68 67 66 63 58 57 53 54 53 52 50 50 54 55 55
100 100 99 97 91 98 96 96 95 93 96 98 94 91 89 82 78 75 72 70 68 62 60 60 58 58 59 55 56 54 55 56
102 101 100 98 92 95 98 97 95 92 93 98 89 89 86 87 83 77 75 73 70 69 68 69 67 65 62 61 62 59 58 58
102 101 101 101 99 93 101 100 100 96 94 94 83 81 81 80 88 83 83 78 77 76 72 70 68 66 67 64 63 65 62 60
103 102 102 103 100 96 96 103 102 101 94 91 84 76 73 70 69 77 83 80 78 76 75 77 74 71 70 66 66 67 64 63
103 103 103 103 102 99 96 102 104 101 96 90 90 78 75 68 69 68 71 76 81 80 77 77 74 72 73 74 73 71 69 68
102 105 104 105 104 103 100 97 105 103 99 93 92 89 79 76 71 71 70 70 72 72 78 78 72 71 74 76 75 72 72 71
102 105 105 105 105 106 105 99 96 104 101 98 93 92 89 83 80 74 73 68 67 68 69 71 69 75 77 76 78 73 72 69
102 106 106 104 104 105 107 103 98 94 102 99 98 96 95 94 88 86 77 73 71 68 67 68 69 75 74 77 78 75 73 74
Wind_Direction
216 218 218 221 213 214 215 221 219 220 227 229 231 229 221 224 221 224 224 225 225 229 230 234 239 242 243 247 250 251 254 256
216 214 215 214 217 218 215 219 221 219 223 229 230 224 220 224 222 224 225 226 227 228 232 233 236 238 242 245 246 242 248 254
217 214 213 213 214 219 220 217 221 221 223 228 232 228 221 223 222 226 225 226 224 229 231 231 235 237 240 243 241 241 245 246
216 218 213 212 214 216 220 218 218 222 224 224 229 231 222 226 226 226 227 228 226 227 230 231 233 236 236 236 234 236 245 248
214 216 214 213 214 217 217 217 215 218 227 226 221 223 221 221 224 222 225 230 231 229 229 233 237 237 237 238 239 242 243 246
214 216 215 212 214 217 217 219 216 217 221 227 226 218 220 225 226 227 224 227 233 236 234 235 236 240 237 239 241 244 246 250
212 210 212 212 213 214 215 218 218 218 222 225 225 215 216 222 225 226 231 230 230 234 237 238 237 238 239 240 243 245 247 247
209 208 209 210 212 212 213 215 220 217 222 221 220 215 215 217 222 225 224 229 232 235 236 239 239 240 239 241 243 247 249 249
210 209 208 210 211 211 212 213 216 217 218 221 217 217 218 217 222 222 225 226 233 235 236 238 245 247 244 242 243 247 248 249
209 208 210 210 210 211 211 211 215 216 216 217 218 219 219 219 220 223 228 229 232 238 241 241 244 248 251 252 251 253 257 256
210 208 209 211 210 210 212 212 214 215 216 217 221 222 222 221 221 223 227 231 230 235 238 242 242 244 244 246 247 249 252 251
211 208 207 211 212 209 212 213 213 217 217 218 221 225 225 224 224 225 229 230 235 238 240 246 246 249 246 247 249 251 253 254
211 208 207 209 211 211 211 215 213 217 217 218 219 226 230 227 226 227 233 237 241 241 242 250 248 246 247 249 253 255 255 258
210 209 207 208 209 211 210 214 214 215 217 216 217 222 227 232 231 234 236 240 240 243 244 242 242 243 246 248 249 250 252 253
210 209 208 210 210 210 213 214 215 216 216 215 213 214 219 226 233 234 237 237 240 241 241 239 237 240 242 243 245 248 251 253
209 210 210 210 210 212 212 214 215 217 216 216 213 210 213 219 227 234 234 236 236 237 238 238 239 241 243 246 250 251 254 256
209 210 211 211 211 213 214 215 215 215 216 215 215 211 209 213 219 228 234 236 235 239 238 239 243 248 244 248 249 253 256 259
209 211 212 213 212 214 216 216 217 215 215 216 216 217 210 213 214 218 225 232 239 241 242 243 244 247 249 253 253 255 256 255
209 212 212 213 213 215 217 218 218 217 215 216 217 218 218 215 218 216 220 223 228 234 241 246 243 247 251 251 252 253 252 255
Height
10631 10645 10657 10669 10680 10688 10697 10705 10715 10724 10732 10740 10748 10754 10760 10764 10768 10772 10777 10782 10786 10790 10793 10797 10800 10803 10805 10808 10810 10812 10815 10817
10617 10628 10644 10658 10670 10677 10685 10694 10702 10713 10720 10727 10735 10740 10747 10753 10756 10761 10768 10773 10779 10782 10785 10789 10792 10796 10800 10802 10804 10807 10809 10811
10602 10614 10629 10641 10652 10660 10671 10684 10691 10700 10708 10715 10723 10731 10737 10742 10748 10753 10760 10765 10769 10773 10776 10780 10785 10788 10791 10795 10798 10801 10803 10805
10584 10600 10615 10625 10639 10647 10656 10668 10677 10686 10696 10707 10714 10723 10731 10738 10743 10745 10750 10755 10759 10763 10768 10773 10776 10780 10783 10787 10790 10794 10797 10798
10567 10581 10600 10613 10623 10628 10638 10650 10665 10674 10685 10696 10705 10710 10716 10719 10725 10733 10739 10745 10750 10756 10760 10765 10769 10773 10776 10780 10783 10786 10789 10791
10546 10563 10581 10591 10600 10612 10625 10634 10648 10660 10672 10682 10693 10700 10705 10713 10720 10726 10730 10736 10743 10749 10752 10756 10761 10765 10769 10772 10775 10778 10781 10783
10520 10537 10548 10563 10576 10590 10607 10622 10633 10646 10659 10670 10679 10687 10694 10704 10710 10715 10722 10728 10733 10738 10743 10746 10752 10756 10760 10764 10767 10769 10772 10774
10487 10505 10522 10539 10556 10574 10590 10607 10618 10633 10646 10657 10664 10674 10682 10689 10696 10703 10711 10718 10724 10727 10732 10736 10741 10747 10752 10756 10759 10762 10764 10766
10480 10495 10508 10521 10536 10554 10572 10589 10602 10617 10629 10640 10649 10660 10669 10676 10685 10693 10700 10705 10712 10718 10722 10728 10733 10738 10743 10747 10749 10752 10755 10757
10456 10476 10494 10506 10520 10540 10557 10571 10585 10598 10611 10621 10634 10645 10655 10664 10671 10679 10685 10693 10702 10708 10713 10720 10725 10729 10734 10738 10740 10743 10746 10749
10442 10462 10480 10495 10510 10529 10543 10556 10571 10580 10590 10605 10617 10629 10638 10646 10657 10667 10674 10681 10689 10696 10702 10708 10714 10718 10723 10727 10730 10733 10735 10737
10421 10443 10464 10481 10496 10511 10528 10540 10553 10567 10580 10593 10608 10618 10627 10635 10647 10654 10661 10668 10677 10684 10691 10698 10704 10708 10712 10715 10718 10722 10723 10726
10403 10425 10446 10466 10483 10498 10513 10525 10539 10551 10560 10578 10596 10606 10614 10626 10635 10642 10648 10656 10663 10669 10677 10685 10690 10695 10699 10702 10705 10708 10711 10714
10387 10409 10428 10445 10462 10477 10492 10505 10519 10530 10542 10564 10581 10592 10601 10609 10620 10627 10635 10640 10647 10654 10666 10672 10676 10680 10685 10689 10692 10695 10697 10699
10370 10390 10411 10428 10446 10460 10476 10488 10501 10513 10530 10550 10563 10575 10586 10596 10603 10610 10618 10625 10631 10641 10650 10656 10662 10666 10670 10674 10677 10680 10683 10686
10355 10375 10393 10410 10430 10445 10456 10468 10486 10501 10519 10537 10547 10559 10572 10581 10589 10594 10603 10611 10619 10627 10635 10642 10647 10651 10655 10658 10660 10665 10669 10672
10342 10359 10375 10393 10412 10426 10440 10454 10468 10484 10503 10521 10529 10543 10558 10568 10575 10582 10589 10596 10605 10611 10619 10626 10631 10634 10638 10639 10644 10650 10653 10658
10326 10341 10361 10377 10393 10408 10423 10437 10452 10470 10487 10503 10516 10527 10539 10547 10557 10567 10576 10584 10589 10597 10602 10609 10617 10616 10623 10623 10628 10634 10638 10643
10308 10324 10342 10362 10378 10394 10406 10422 10436 10454 10473 10488 10498 10508 10519 10529 10540 10549 10559 10568 10575 10581 10586 10591 10601 10601 10604 10606 10611 10619 10622 10625